Regional Weather Roundup
Issued by NWS Upton, NY

Home | Current Version | Previous Version | Text Only | Print | Product List | Glossary On
Versions: 1 2 3 4 5 6 7 8 9 10 11 12 13 14 15 16 17 18 19 20 21 22 23 24 25 26 27 28 29 30 31 32 33 34 35 36 37 38 39 40 41 42 43 44 45 46 47 48 49 50
000
ASUS41 KOKX 011405
RWROKX

REGIONAL WEATHER ROUNDUP
NATIONAL WEATHER SERVICE NEW YORK NY
900 AM EST SUN FEB 01 2015

NOTE: "FAIR" INDICATES FEW OR NO CLOUDS BELOW 12,000 FEET WITH NO
SIGNIFICANT WEATHER AND/OR OBSTRUCTIONS TO VISIBILITY.

NYZ071-072-176-178-NJZ106-104-011500-
NEW YORK CITY METRO AREA


CITY           SKY/WX    TMP DP  RH WIND       PRES   REMARKS
CENTRAL PARK   CLOUDY    28  14  55 CALM      30.24R
LAGUARDIA APRT PTSUNNY   29  16  58 W8        30.22F WCI  21
KENNEDY INTL   PTSUNNY   29  15  56 W8        30.24S WCI  21
NEWARK/LIBERTY CLOUDY    26  15  63 W8        30.23S WCI  18
BRNX BOT. GARD   N/A    N/A N/A N/A W8        30.23F
TETERBORO      CLOUDY    27  14  58 CALM      30.22S
$$

NYZ177-179-078>081-011500-
LONG ISLAND NEW YORK

CITY           SKY/WX    TMP DP  RH WIND       PRES   REMARKS
FARMINGDALE    MOSUNNY   26  13  57 W9        30.22S WCI  17
ISLIP          MOSUNNY   23  14  68 W8        30.20R WCI  14
SHIRLEY        SUNNY     22  14  71 W7        30.22R WCI  13
WESTHAMPTON    SUNNY     21  12  68 W10       30.22S WCI  10
MONTAUK POINT    N/A     27  19  72 W6        30.21R WCI  20
$$

NYZ052-065-067-011500-
HUDSON VALLEY

CITY           SKY/WX    TMP DP  RH WIND       PRES   REMARKS
WHITE PLAINS   SUNNY     23  11  60 W6        30.18R WCI  16
NEWBURGH       CLOUDY    23  16  74 W12       30.18R WCI  12
MONTGOMERY     CLOUDY    20  12  71 SW6       30.17S WCI  12
POUGHKEEPSIE   CLOUDY    25  13  60 SW6       30.19R WCI  18
ALBANY         MOSUNNY   16   8  71 E5        30.18R WCI   9
$$

NJZ001-105-106-008-010-013-015-019>022-104-011500-
NEW JERSEY

CITY           SKY/WX    TMP DP  RH WIND       PRES   REMARKS
NEWARK/LIBERTY CLOUDY    26  15  63 W8        30.23S WCI  18
TETERBORO      CLOUDY    27  14  58 CALM      30.22S
CALDWELL       CLOUDY    24  12  60 VRB3      30.22S
MORRISTOWN     CLOUDY    23  16  74 CALM      30.23R
SOMERVILLE     CLOUDY    22  14  71 CALM      30.22S
SUSSEX         CLOUDY    20  11  68 CALM      30.19R
ANDOVER          N/A     23  13  65 VRB3      30.19S
TRENTON        CLOUDY    28  14  55 W5        30.24R WCI  23
MILLVILLE      CLOUDY    28  20  71 W6        30.27S WCI  22
ATLANTIC CITY  CLOUDY    27  14  58 W5        30.27R WCI  22
WRIGHTSTOWN    CLOUDY    26  15  62 SW2       30.23R
TOMS RIVER     CLOUDY    27  12  54 CALM      30.24R
BELMAR         CLOUDY    27  12  54 W8        30.24R WCI  18
$$

PAZ047>061-062-071-011500-
EASTERN PENNSYLVANIA

CITY           SKY/WX    TMP DP  RH WIND       PRES   REMARKS
PHILADELPHIA   CLOUDY    28  15  58 SW8       30.27S WCI  20
ALLENTOWN      CLOUDY    27  15  61 SW5       30.22S WCI  22
SCRANTON       CLOUDY    25  14  63 SW7       30.17R WCI  17
$$

CTZ002-004>006-009-010-012-RIZ004-006-007-MAZ004-011-015-011500-
SOUTHERN NEW ENGLAND
 IN CT

CITY           SKY/WX    TMP DP  RH WIND       PRES   REMARKS
BRADLEY INTL   PTSUNNY   18   8  65 SW8       30.17R WCI   8
HARTFORD       CLOUDY    17   7  64 S5        30.20R WCI  10
DANBURY        CLOUDY    12   5  73 CALM      30.19R
WTRBRY/OXFORD  FLURRIES  18   3  53 CALM      30.16R
BRIDGEPORT     CLOUDY    23  14  68 W8        30.21R WCI  14
MERIDEN        CLOUDY    14   8  77 CALM      30.20R
NEW HAVEN      CLOUDY    20  12  71 NW3       30.20R
CHESTER        CLOUDY    21  10  63 W8        30.17S WCI  12
GROTON         CLOUDY    20  12  71 W8        30.19R WCI  10
WILLIMANTIC    CLOUDY    19   9  65 W6        30.18R WCI  11

 IN RI

CITY           SKY/WX    TMP DP  RH WIND       PRES   REMARKS
PROVIDENCE     PTSUNNY   20   9  62 W12       30.17R WCI   8
BLOCK ISLAND   PTSUNNY   28  18  64 W13       30.16S WCI  18
WESTERLY       CLOUDY    23  12  62 VRB7G16   30.19S WCI  15

 IN MA

CITY           SKY/WX    TMP DP  RH WIND       PRES   REMARKS
BOSTON         MOSUNNY   18   8  65 W15G22    30.15R WCI   4
WORCESTER      SUNNY    N/A N/A N/A SW9       30.08R
WESTFIELD      CLOUDY    18  10  71 S8        30.15R WCI   8
PROVINCETOWN   SUNNY     23  12  63 W14G25    30.14R WCI  11
NANTUCKET      SUNNY     24  14  65 NW14      30.15R WCI  12
$$

ANZ330-335-338-340-345-350-353-355-011500-
COASTAL MARINE OBSERVATIONS


STATION/POSITION TIME  SKY/WX   TEMP    WIND        PRES    VSBY  WAVE
                                AIR SEA DIR/SP/G                  HT/PER
                 (UTC)          (F)     (DEG/KT/KT) (MB)    (MI)  (FT/S)
NY HARB ENTRANCE 1400            31 40  290/ 12/ 16 1023.4          2/ 3
4S FIRE IS       NOT AVBL
20S FIRE ISLAND  1300               41              1023.8          4/ 5
23SW MTP         1400                                 N/A           4/ 5
HUDSON CANYON    NOT AVBL
EXECUTION ROCKS  1400            27 32  240/ 10/ 14   N/A
WESTERN LI SOUND 1400            28     250/ 14/ 17   N/A           2/ 3
CENTRAL LI SOUND 1400            27 34  270/ 16/ 19   N/A           2/ 4
EASTERN LI SOUND NOT AVBL
ROBBINS REEF     1400            27     280/ 12/ 14 1022.5
$$


>>>>>>>>>>>>>>>>>>>>>>>>>>>> KEY <<<<<<<<<<<<<<<<<<<<<<<<<<<
>                                                          <
>     SKY/WX - SKY CONDITION/PRESENT WEATHER               <
>     TMP    - TEMPERATURE IN FAHRENHEIT                   <
>     DP     - DEWPOINT IN FAHRENHEIT                      <
>     RH     - RELATIVE HUMIDITY IN PERCENT                <
>     WIND   - DIRECTION AND SPEED IN MPH                  <
>     PRES   - MEAN SEA LEVEL PRESSURE IN INCHES OF HG     <
>     WCI    - WIND CHILL INDEX                            <
>     VSB    - VISIBILITY IN MILES                         <
>     HX     - HEAT INDEX                                  <
>     TC     - TEMPERATURE IN CELSIUS                      <
>     VRB    - VARIABLE WIND DIRECTION                     <
>                                                          <
>>>>>>>>>>>>>>>>>>>>>>>>>>>> KEY <<<<<<<<<<<<<<<<<<<<<<<<<<<




USA.gov is the U.S. government's official web portal to all federal, state and local government web resources and services.